Portada
METAR-TAF:

METAR-TAF

Aeroports :

Wittman Regional Airport

Oshkosh, Wisconsin, Estats Units d'Amèrica

latitud: 43-58-00N, longitud: 088-33-29W, altitud: 246 m

Observació

L'informe es va fer fa 26 minuts, a les 03:53 UTC
Vent calma
Temperatura 21°C
Humitat 94%
Pressió 1017 hPa
Visibilitat: 11.3 km
Cel clar

METAR: KOSH 180353Z AUTO 00000KT 7SM CLR 21/20 A3003 RMK AO2 SLP156 T02060200

Hora: 23:19 (04:19 UTC)


TAF: manca

Observacions i pronòstics meteorològics de més de 4000 aeroports (METAR i TAF).

Les estacions disponibles són els punts grocs i vermells al mapa.

Posi el ratolí al punt desitjat per veure el nom de l'estació.

Feu clic per veure les observacions i els pronòstics meteorològics.

Per canviar el mapa: feu clic els botons verds amb una creu de color negre per apropar; al botó verd amb un guió per allunyar la imatge; o en les fletxes verdes per a mapes adjacents.


METAR-TAF: